QTR40E LIRF-OTHH

Flight info

Callsign QTR40E
Flight time N/A
Altitude 35000
Route SIPRO DCT IPKAM DCT AMSOR DCT EKTOL DCT DOGUS DCT ULFIG DCT LATAN DCT OSDES DCT TRL DCT GUDIS/N0476F370 DCT KAVOS DCT EVORA DCT LAKTO L560 SERMA L550 KARIK B411 DEESA Y415 TAMRO N318 HAYYA
Aircraft B77W/H-SDE1E2E3FGHIJ2J3J4J5M1RWXY/LB1D1

Departure

Time 2026-02-17 11:07
Airport Rome–Fiumicino Leonardo da Vinci International Airport (LIRF)

Arrival

Time N/A
Airport Hamad International Airport (OTHH)
Time Latitude Longitude Altitude Speed Heading
2026-02-17 09:47 41.79602 12.24351 21 ft 0 kts 277°
2026-02-17 10:41 41.79601 12.24358 24 ft 2 kts 275°
2026-02-17 10:42 41.79600 12.24380 23 ft 2 kts 276°
2026-02-17 10:42 41.79598 12.24402 25 ft 2 kts 276°
2026-02-17 10:42 41.79595 12.24424 26 ft 2 kts 299°
2026-02-17 10:43 41.79575 12.24459 26 ft 2 kts 313°
2026-02-17 10:43 41.79564 12.24476 26 ft 2 kts 308°
2026-02-17 10:43 41.79555 12.24494 25 ft 2 kts 298°
2026-02-17 10:43 41.79547 12.24514 26 ft 2 kts 298°
2026-02-17 10:44 41.79541 12.24528 25 ft 1 kts 298°
2026-02-17 10:44 41.79540 12.24530 25 ft 0 kts 298°
2026-02-17 10:48 41.79541 12.24529 25 ft 2 kts 298°
2026-02-17 10:48 41.79556 12.24499 26 ft 5 kts 308°
2026-02-17 10:48 41.79587 12.24462 25 ft 7 kts 326°
2026-02-17 10:48 41.79636 12.24434 21 ft 8 kts 339°
2026-02-17 10:49 41.79690 12.24406 21 ft 8 kts 339°
2026-02-17 10:49 41.79743 12.24379 20 ft 8 kts 339°
2026-02-17 10:49 41.79789 12.24346 20 ft 6 kts 328°
2026-02-17 10:49 41.79826 12.24313 19 ft 7 kts 327°
2026-02-17 10:50 41.79861 12.24281 19 ft 9 kts 320°
2026-02-17 10:50 41.79902 12.24169 19 ft 12 kts 287°
2026-02-17 10:50 41.79914 12.24065 19 ft 11 kts 266°
2026-02-17 10:51 41.79874 12.23886 21 ft 9 kts 250°
2026-02-17 10:51 41.79851 12.23803 21 ft 9 kts 250°
2026-02-17 10:51 41.79838 12.23733 20 ft 8 kts 270°
2026-02-17 10:51 41.79867 12.23674 23 ft 8 kts 327°
2026-02-17 10:52 41.79914 12.23652 26 ft 0 kts 342°
2026-02-17 10:55 41.79925 12.23647 23 ft 6 kts 342°
2026-02-17 10:56 41.79979 12.23630 26 ft 9 kts 353°
2026-02-17 10:56 41.80038 12.23657 29 ft 9 kts 40°
2026-02-17 10:56 41.80073 12.23736 27 ft 10 kts 66°
2026-02-17 10:56 41.80101 12.23833 24 ft 12 kts 71°
2026-02-17 10:57 41.80107 12.23939 22 ft 9 kts 104°
2026-02-17 10:57 41.80064 12.23998 19 ft 9 kts 155°
2026-02-17 10:57 41.79999 12.24030 18 ft 10 kts 162°
2026-02-17 10:57 41.79965 12.24043 -9 ft 6 kts 165°
2026-02-17 10:58 41.79915 12.24027 19 ft 9 kts 226°
2026-02-17 10:58 41.79891 12.23951 20 ft 9 kts 251°
2026-02-17 10:58 41.79871 12.23872 21 ft 9 kts 250°
2026-02-17 10:59 41.79807 12.23722 19 ft 11 kts 205°
2026-02-17 10:59 41.79706 12.23736 20 ft 12 kts 163°
2026-02-17 10:59 41.79625 12.23769 21 ft 12 kts 163°
2026-02-17 10:59 41.79534 12.23809 20 ft 19 kts 162°
2026-02-17 11:00 41.79397 12.23867 25 ft 20 kts 162°
2026-02-17 11:00 41.79269 12.23923 21 ft 17 kts 162°
2026-02-17 11:00 41.79166 12.23965 23 ft 15 kts 163°
2026-02-17 11:00 41.79074 12.24003 26 ft 14 kts 163°
2026-02-17 11:01 41.78967 12.24048 21 ft 21 kts 162°
2026-02-17 11:01 41.78819 12.24109 19 ft 23 kts 163°
2026-02-17 11:01 41.78657 12.24177 18 ft 23 kts 162°
2026-02-17 11:01 41.78506 12.24241 26 ft 21 kts 162°
2026-02-17 11:02 41.78387 12.24291 26 ft 15 kts 162°
2026-02-17 11:02 41.78313 12.24322 28 ft 5 kts 162°
2026-02-17 11:02 41.78277 12.24334 30 ft 5 kts 173°
2026-02-17 11:03 41.78220 12.24283 29 ft 5 kts 246°
2026-02-17 11:03 41.78208 12.24238 26 ft 0 kts 252°
2026-02-17 11:04 41.78206 12.24227 26 ft 5 kts 253°
2026-02-17 11:04 41.78204 12.24149 29 ft 14 kts 282°
2026-02-17 11:04 41.78246 12.24048 28 ft 9 kts 306°
2026-02-17 11:05 41.78296 12.23999 27 ft 9 kts 334°
2026-02-17 11:05 41.78313 12.23991 28 ft 1 kts 342°
2026-02-17 11:05 41.78314 12.23991 29 ft 0 kts 342°
2026-02-17 11:06 41.78432 12.23941 23 ft 55 kts 342°
2026-02-17 11:07 41.80075 12.23234 36 ft 181 kts 337°
2026-02-17 11:07 41.81324 12.22692 415 ft 195 kts 340°
2026-02-17 11:07 41.82581 12.21949 766 ft 205 kts 319°
2026-02-17 11:07 41.83423 12.20355 1086 ft 220 kts 289°
2026-02-17 11:08 41.83880 12.18371 1802 ft 224 kts 282°
2026-02-17 11:08 41.84290 12.16311 2451 ft 230 kts 282°
2026-02-17 11:08 41.84707 12.14237 3266 ft 229 kts 283°
2026-02-17 11:08 41.84901 12.12123 3818 ft 233 kts 260°
2026-02-17 11:09 41.84242 12.10084 4342 ft 249 kts 231°
2026-02-17 11:09 41.82847 12.08685 4988 ft 264 kts 204°
2026-02-17 11:09 41.80993 12.08340 5674 ft 280 kts 176°
2026-02-17 11:09 41.79083 12.09129 6271 ft 296 kts 159°
2026-02-17 11:10 41.77201 12.10357 6944 ft 303 kts 156°
2026-02-17 11:10 41.75303 12.11609 7731 ft 305 kts 158°
2026-02-17 11:10 41.73376 12.12830 8505 ft 308 kts 159°
2026-02-17 11:11 41.69627 12.15743 9872 ft 320 kts 142°
2026-02-17 11:11 41.67963 12.17798 10269 ft 335 kts 131°
2026-02-17 11:11 41.66844 12.20582 10419 ft 356 kts 103°
2026-02-17 11:11 41.66329 12.23914 10611 ft 377 kts 97°
2026-02-17 11:12 41.65889 12.27503 11051 ft 392 kts 97°
2026-02-17 11:12 41.65452 12.31104 11769 ft 402 kts 97°
2026-02-17 11:12 41.64978 12.34812 12694 ft 407 kts 97°
2026-02-17 11:12 41.64472 12.38566 13656 ft 412 kts 98°
2026-02-17 11:13 41.63940 12.42350 14497 ft 418 kts 98°
2026-02-17 11:13 41.63385 12.46193 15308 ft 424 kts 98°
2026-02-17 11:13 41.62812 12.50086 16148 ft 429 kts 98°
2026-02-17 11:13 41.62225 12.54032 16989 ft 435 kts 98°
2026-02-17 11:14 41.61629 12.58015 17826 ft 440 kts 98°
2026-02-17 11:14 41.61022 12.62060 18569 ft 446 kts 98°
2026-02-17 11:14 41.60407 12.66147 19281 ft 451 kts 98°
2026-02-17 11:15 41.59154 12.74457 20683 ft 462 kts 98°
2026-02-17 11:15 41.58516 12.78682 21366 ft 467 kts 98°
2026-02-17 11:15 41.57867 12.82960 22069 ft 472 kts 98°
2026-02-17 11:15 41.57210 12.87289 22704 ft 478 kts 98°
2026-02-17 11:16 41.56544 12.91657 23365 ft 483 kts 98°
2026-02-17 11:16 41.55877 12.96025 23791 ft 490 kts 98°
2026-02-17 11:16 41.55190 13.00517 23779 ft 493 kts 98°
2026-02-17 11:16 41.54502 13.04993 23772 ft 491 kts 98°
2026-02-17 11:17 41.53811 13.09463 23870 ft 492 kts 98°
2026-02-17 11:17 41.53116 13.13954 24319 ft 496 kts 98°
2026-02-17 11:17 41.52415 13.18467 24919 ft 498 kts 97°
2026-02-17 11:17 41.51949 13.21463 25327 ft 500 kts 97°
2026-02-17 11:18 41.51241 13.26024 25861 ft 505 kts 97°
2026-02-17 11:18 41.50525 13.30637 26354 ft 510 kts 96°
2026-02-17 11:18 41.49795 13.35305 26821 ft 515 kts 96°
2026-02-17 11:19 41.48310 13.44739 27814 ft 523 kts 96°
2026-02-17 11:19 41.47563 13.49448 28251 ft 527 kts 96°
2026-02-17 11:19 41.46795 13.54303 28721 ft 530 kts 95°
2026-02-17 11:19 41.46034 13.59123 29164 ft 533 kts 95°
2026-02-17 11:20 41.45272 13.63916 29579 ft 536 kts 95°
2026-02-17 11:20 41.44439 13.68767 29989 ft 541 kts 99°
2026-02-17 11:20 41.43309 13.73573 30451 ft 543 kts 103°
2026-02-17 11:20 41.42066 13.78320 30944 ft 542 kts 104°
2026-02-17 11:21 41.40805 13.83043 31423 ft 541 kts 104°
2026-02-17 11:21 41.39544 13.87771 31888 ft 541 kts 104°
2026-02-17 11:21 41.38293 13.92498 32358 ft 541 kts 104°
2026-02-17 11:21 41.37052 13.97227 32772 ft 541 kts 104°
2026-02-17 11:22 41.35816 14.01966 33176 ft 541 kts 104°
2026-02-17 11:22 41.34584 14.06693 33498 ft 541 kts 104°
2026-02-17 11:22 41.33352 14.11420 33863 ft 541 kts 104°
2026-02-17 11:23 41.30875 14.20883 34494 ft 541 kts 105°
2026-02-17 11:23 41.29629 14.25625 34655 ft 545 kts 105°
2026-02-17 11:23 41.27133 14.35088 34697 ft 544 kts 105°
2026-02-17 11:24 41.24631 14.44521 34695 ft 537 kts 105°
2026-02-17 11:24 41.22146 14.53877 34702 ft 536 kts 105°
2026-02-17 11:25 41.19670 14.63192 34702 ft 534 kts 104°
2026-02-17 11:25 41.17836 14.72714 34702 ft 529 kts 96°
2026-02-17 11:26 41.16438 14.82254 34702 ft 530 kts 97°
2026-02-17 11:27 41.14138 14.96629 34896 ft 536 kts 96°
2026-02-17 11:27 41.12544 15.06427 34780 ft 547 kts 97°
2026-02-17 11:28 41.10933 15.16282 34692 ft 545 kts 97°
2026-02-17 11:28 41.09330 15.26065 34681 ft 541 kts 97°
2026-02-17 11:29 41.07732 15.35802 34677 ft 538 kts 97°
2026-02-17 11:29 41.06149 15.45400 34675 ft 536 kts 97°
2026-02-17 11:30 41.04549 15.55044 34658 ft 535 kts 97°
2026-02-17 11:30 41.02946 15.64661 34666 ft 534 kts 98°
2026-02-17 11:31 41.00880 15.74141 34646 ft 540 kts 109°
2026-02-17 11:31 40.99406 15.78728 34669 ft 541 kts 110°
2026-02-17 11:31 40.96356 15.87840 34654 ft 541 kts 111°
2026-02-17 11:32 40.93337 15.96904 34632 ft 542 kts 110°
2026-02-17 11:32 40.90331 16.06054 34628 ft 541 kts 110°
2026-02-17 11:33 40.87335 16.15200 34616 ft 541 kts 110°
2026-02-17 11:33 40.84336 16.24315 34602 ft 541 kts 111°
2026-02-17 11:34 40.81327 16.33420 34599 ft 541 kts 111°
2026-02-17 11:35 40.76822 16.46987 34580 ft 540 kts 111°
2026-02-17 11:35 40.73801 16.56053 34568 ft 540 kts 111°
2026-02-17 11:36 40.70773 16.65107 34554 ft 539 kts 111°
2026-02-17 11:36 40.67739 16.74152 34552 ft 538 kts 111°
2026-02-17 11:37 40.64703 16.83173 34555 ft 538 kts 111°
2026-02-17 11:37 40.61687 16.92106 34549 ft 537 kts 111°
2026-02-17 11:38 40.58646 17.01085 34551 ft 536 kts 112°
2026-02-17 11:38 40.55599 17.10056 34557 ft 536 kts 112°
2026-02-17 11:39 40.51024 17.23469 34575 ft 535 kts 112°
2026-02-17 11:39 40.47989 17.32337 34582 ft 535 kts 112°
2026-02-17 11:40 40.44566 17.41003 34585 ft 535 kts 122°
2026-02-17 11:40 40.40068 17.48775 34575 ft 535 kts 133°
2026-02-17 11:41 40.34952 17.55856 34561 ft 534 kts 134°
2026-02-17 11:41 40.29822 17.62891 34538 ft 533 kts 134°
2026-02-17 11:42 40.24726 17.69947 34534 ft 533 kts 134°
2026-02-17 11:43 40.17123 17.80523 34540 ft 534 kts 134°
2026-02-17 11:43 40.12028 17.87591 34544 ft 534 kts 134°
2026-02-17 11:44 40.06928 17.94643 34543 ft 534 kts 134°